Time,TemperatureF,DewpointF,PressureIn,WindDirection,WindDirectionDegrees,WindSpeedMPH,WindSpeedGustMPH,Humidity,HourlyPrecipIn,Conditions,Clouds,dailyrainin,SoftwareType,DateUTC
2013-01-17 08:22:00,40.0,33.0,25.83,ESE,121,1.0,2.0,75,0.00,,,0.00,,2013-01-17 16:22:00,
2013-01-17 08:33:00,41.0,33.0,25.85,SE,124,2.0,5.0,72,0.00,,,0.00,,2013-01-17 16:33:00,
2013-01-17 08:43:00,41.0,33.0,25.85,SE,124,2.0,5.0,72,0.00,,,0.00,,2013-01-17 16:43:00,
2013-01-17 08:52:00,42.0,33.0,25.81,SE,132,2.0,4.0,71,0.00,,,0.00,,2013-01-17 16:52:00,
2013-01-17 09:02:00,44.0,34.0,25.84,ESE,119,2.0,4.0,67,0.00,,,0.00,,2013-01-17 17:02:00,
2013-01-17 09:33:00,45.0,34.0,25.85,SE,125,2.0,4.0,65,0.00,,,0.00,,2013-01-17 17:33:00,
2013-01-17 09:53:00,46.0,35.0,25.84,ESE,121,0.0,4.0,66,0.00,,,0.00,,2013-01-17 17:53:00,
2013-01-17 10:03:00,47.0,35.0,25.86,ESE,105,2.0,4.0,64,0.00,,,0.00,,2013-01-17 18:03:00,
2013-01-17 10:22:00,47.0,35.0,26.02,East,92,2.0,4.0,64,0.00,,,0.00,,2013-01-17 18:22:00,
2013-01-17 10:33:00,48.0,36.0,25.92,ESE,103,2.0,4.0,62,0.00,,,0.00,,2013-01-17 18:33:00,
2013-01-17 10:43:00,48.0,36.0,25.92,ESE,103,2.0,4.0,62,0.00,,,0.00,,2013-01-17 18:43:00,
2013-01-17 10:52:00,49.0,36.0,26.09,East,89,3.0,4.0,60,0.00,,,0.00,,2013-01-17 18:52:00,
2013-01-17 11:02:00,51.0,35.0,25.97,East,92,2.0,5.0,55,0.00,,,0.00,,2013-01-17 19:02:00,
2013-01-17 11:12:00,51.0,35.0,25.97,East,92,2.0,5.0,55,0.00,,,0.00,,2013-01-17 19:12:00,
2013-01-17 11:22:00,52.0,36.0,25.97,SE,133,2.0,5.0,54,0.00,,,0.00,,2013-01-17 19:22:00,
2013-01-17 11:32:00,53.0,36.0,26.05,East,82,1.0,4.0,53,0.00,,,0.00,,2013-01-17 19:32:00,
2013-01-17 11:42:00,53.0,36.0,26.05,East,82,1.0,4.0,53,0.00,,,0.00,,2013-01-17 19:42:00,
2013-01-17 11:52:00,54.0,37.0,26.05,ESE,104,1.0,4.0,53,0.00,,,0.00,,2013-01-17 19:52:00,
2013-01-17 12:02:00,56.0,40.0,26.07,East,80,2.0,3.0,54,0.00,,,0.00,,2013-01-17 20:02:00,
2013-01-17 12:12:00,56.0,40.0,26.07,East,80,2.0,3.0,54,0.00,,,0.00,,2013-01-17 20:12:00,
2013-01-17 12:22:00,56.0,40.0,26.10,East,81,1.0,4.0,54,0.00,,,0.00,,2013-01-17 20:22:00,
2013-01-17 12:33:00,58.0,41.0,26.15,ESE,114,1.0,3.0,53,0.00,,,0.00,,2013-01-17 20:33:00,
2013-01-17 12:42:00,58.0,41.0,26.15,ESE,114,1.0,3.0,53,0.00,,,0.00,,2013-01-17 20:42:00,
2013-01-17 12:53:00,58.0,39.0,26.15,East,98,1.0,3.0,50,0.00,,,0.00,,2013-01-17 20:53:00,
2013-01-17 13:02:00,61.0,41.0,26.11,ESE,103,0.0,2.0,48,0.00,,,0.00,,2013-01-17 21:02:00,
2013-01-17 13:12:00,61.0,41.0,26.11,ESE,103,0.0,2.0,48,0.00,,,0.00,,2013-01-17 21:12:00,
2013-01-17 13:22:00,62.0,40.0,26.11,ESE,103,1.0,2.0,45,0.00,,,0.00,,2013-01-17 21:22:00,
2013-01-17 13:33:00,64.0,42.0,25.97,ESE,103,0.0,2.0,44,0.00,,,0.00,,2013-01-17 21:33:00,
2013-01-17 13:52:00,64.0,43.0,25.97,ESE,103,1.0,2.0,46,0.00,,,0.00,,2013-01-17 21:52:00,
2013-01-17 14:03:00,64.0,42.0,26.18,ENE,62,1.0,3.0,45,0.00,,,0.00,,2013-01-17 22:03:00,
2013-01-17 14:12:00,64.0,42.0,26.18,ENE,62,1.0,3.0,45,0.00,,,0.00,,2013-01-17 22:12:00,
2013-01-17 14:22:00,64.0,42.0,25.93,ENE,62,0.0,2.0,45,0.00,,,0.00,,2013-01-17 22:22:00,
2013-01-17 14:32:00,66.0,43.0,25.93,ENE,62,1.0,2.0,44,0.00,,,0.00,,2013-01-17 22:32:00,
2013-01-17 14:52:00,65.0,44.0,26.01,ENE,62,0.0,2.0,47,0.00,,,0.00,,2013-01-17 22:52:00,
2013-01-17 15:02:00,64.0,47.0,26.01,ENE,62,0.0,1.0,55,0.00,,,0.00,,2013-01-17 23:02:00,
2013-01-17 15:12:00,64.0,47.0,26.01,ENE,62,0.0,1.0,55,0.00,,,0.00,,2013-01-17 23:12:00,
2013-01-17 15:22:00,65.0,48.0,26.19,ENE,62,0.0,0.0,54,0.00,,,0.00,,2013-01-17 23:22:00,
2013-01-17 15:32:00,67.0,47.0,26.20,ENE,62,1.0,2.0,48,0.00,,,0.00,,2013-01-17 23:32:00,
2013-01-17 15:52:00,62.0,45.0,26.20,ENE,62,0.0,1.0,53,0.00,,,0.00,,2013-01-17 23:52:00,
2013-01-17 16:02:00,60.0,47.0,26.19,SSE,167,0.0,2.0,62,0.00,,,0.00,,2013-01-18 00:02:00,
2013-01-17 16:12:00,60.0,47.0,26.19,SSE,167,0.0,2.0,62,0.00,,,0.00,,2013-01-18 00:12:00,
2013-01-17 16:22:00,60.0,47.0,26.19,SSE,167,0.0,1.0,63,0.00,,,0.00,,2013-01-18 00:22:00,
2013-01-17 16:32:00,60.0,47.0,26.19,SSE,167,0.0,1.0,63,0.00,,,0.00,,2013-01-18 00:32:00,
2013-01-17 16:42:00,56.0,46.0,26.22,South,174,0.0,1.0,68,0.00,,,0.00,,2013-01-18 00:42:00,
2013-01-17 16:52:00,54.0,44.0,26.22,South,172,0.0,1.0,70,0.00,,,0.00,,2013-01-18 00:52:00,